Location: Ottawa
(45.4167°N, 75.7000°W)
Time: 02:12:39
(UTC-04:00)

Tiangong 1 - Pass Details

Date: 10 October 2017
Orbit: 292 x 319 km, 42.8° (Epoch: 23 October)

Event Time Altitude Azimuth Distance (km) Brightness Sun altitude
Rises 19:20:08 0° 260° (W) 2,044 6.7 -10.3°
Reaches altitude 10° 19:22:09 10° 254° (WSW) 1,208 4.9 -10.7°
Maximum altitude 19:24:46 46° 179° (S) 426 1.2 -11.1°
Enters shadow 19:26:18 20° 112° (ESE) 784 2.1 -11.4°
